Wind_Speed
27 27 27 27 27 28 30 32 33 32 32 29 27 27 27 26 25 25 25 26 26 26 26 25 24 22 21 20 20 21 21 21 20 20 19 20 20 20 20 20 21 20 20 21
28 28 30 29 28 28 30 31 32 32 31 29 29 28 27 26 26 25 26 27 27 25 25 25 24 24 23 21 21 21 21 21 21 21 21 21 21 21 21 21 21 22 22 23
30 29 30 31 29 29 30 30 32 32 31 30 30 29 28 26 26 26 26 26 26 26 25 25 24 24 25 23 21 21 22 22 22 22 22 22 21 21 21 22 22 22 22 23
31 30 31 28 28 29 30 31 31 31 30 30 30 29 27 27 27 26 25 25 26 26 25 25 24 23 22 22 22 22 22 22 22 22 22 22 22 22 21 22 23 23 23 24
32 32 31 28 28 29 29 29 29 29 29 28 27 28 28 28 28 26 26 27 27 27 26 25 25 23 23 24 23 23 22 22 22 22 22 22 23 23 22 23 24 24 24 25
32 32 31 28 28 29 29 29 27 28 29 28 28 29 27 27 26 26 27 27 27 26 25 25 25 25 24 24 24 23 23 23 23 23 23 23 23 24 24 24 24 25 25 26
30 30 30 29 28 28 28 27 28 29 29 28 28 27 27 27 26 26 26 26 26 26 24 24 24 24 24 23 23 23 23 23 23 23 24 24 24 24 25 25 25 26 26 27
29 29 28 28 29 29 28 29 29 29 28 28 28 27 26 25 25 25 25 26 26 25 24 23 23 22 23 23 23 23 23 24 24 23 23 23 24 24 25 26 26 26 27 28
28 28 28 28 29 29 29 29 28 29 28 28 27 26 26 26 25 25 25 25 26 25 25 25 24 24 23 24 24 24 23 23 23 22 21 22 23 24 25 26 26 26 27 28
26 26 27 27 28 28 29 29 28 27 27 27 27 26 25 24 22 23 24 24 25 25 25 25 24 23 23 23 23 23 23 23 22 22 22 22 23 24 24 25 26 27 27 28
24 24 24 25 26 26 26 25 25 24 24 24 25 25 25 23 22 22 23 23 23 24 23 23 23 22 22 22 22 22 23 23 22 22 22 23 23 23 24 24 25 26 26 27
22 22 22 22 24 24 24 23 22 22 21 21 22 22 23 22 21 23 24 23 22 22 22 23 23 22 22 22 23 23 23 23 22 23 23 24 24 24 24 24 25 26 26 26
21 20 20 21 21 22 22 20 19 20 19 18 18 19 20 21 21 23 24 23 22 22 22 22 22 21 22 22 23 24 24 24 23 23 23 24 25 25 25 24 24 25 25 26
19 19 18 19 19 20 20 19 19 20 18 17 17 18 19 19 20 21 22 22 22 21 20 20 21 22 22 22 22 22 22 22 23 23 23 23 23 24 24 24 25 24 25 26
19 19 18 18 18 19 19 19 18 18 17 16 17 18 19 20 21 21 21 20 20 19 19 19 20 21 22 21 21 21 21 21 21 22 22 22 22 23 23 24 24 25 25 25
17 17 17 17 17 18 18 17 17 16 15 15 17 18 19 19 19 19 19 19 19 19 19 19 20 21 21 21 21 21 21 22 22 22 22 22 22 23 24 24 25 25 25 25
17 17 17 16 16 16 16 16 16 16 16 16 16 17 17 17 18 19 18 17 17 18 19 19 19 19 19 21 22 22 22 22 22 22 22 23 24 24 25 25 26 26 26 26
17 17 17 17 17 16 15 14 15 16 17 17 17 16 17 18 18 17 17 18 18 19 19 20 19 19 19 20 21 22 23 23 22 22 23 24 24 24 25 26 26 26 26 25
16 16 17 17 16 15 14 13 14 15 16 16 16 17 17 18 18 18 18 19 19 19 19 20 19 19 20 20 21 22 22 23 23 22 22 23 24 24 25 25 25 25 25 24
15 16 16 16 15 15 14 14 13 14 16 16 17 17 17 17 18 18 19 19 20 20 20 20 20 20 21 21 22 22 22 22 22 22 23 23 23 24 24 25 24 24 24 24
14 15 15 14 14 14 14 14 14 15 15 15 16 16 17 17 17 18 18 18 19 20 20 20 21 21 22 22 23 23 23 23 23 23 23 23 23 23 23 24 23 23 23 24
14 14 14 14 14 14 14 14 14 15 15 15 15 16 17 18 18 18 18 18 19 20 20 21 21 21 22 22 23 23 23 23 23 23 24 24 24 23 23 23 23 23 23 24
12 12 12 12 12 13 13 13 14 14 15 15 15 15 16 17 17 17 17 18 19 20 20 20 20 21 22 22 22 22 23 24 24 24 24 24 24 23 23 23 23 23 23 24
12 12 12 12 12 13 13 13 14 14 14 15 15 15 16 16 16 16 17 18 18 18 19 19 19 20 21 22 22 22 23 23 24 24 24 24 23 23 23 23 24 24 24 24
13 13 13 13 12 12 13 13 14 14 15 15 16 16 16 17 17 17 18 18 18 19 19 19 20 21 21 21 22 23 23 23 23 23 24 24 24 24 24 24 24 24 23 24
12 13 14 13 13 13 13 13 14 14 15 15 16 16 16 16 17 18 19 19 18 19 19 20 21 21 22 22 23 23 23 23 23 23 23 24 24 24 24 25 24 24 24 24
12 12 12 13 13 13 13 14 15 15 16 16 16 16 16 17 17 18 18 19 20 20 20 21 21 21 21 22 22 23 23 23 23 23 23 23 24 24 25 25 25 25 25 24
Wind_Direction
257 255 253 253 254 254 257 261 265 269 271 273 271 271 270 267 268 269 271 274 277 277 278 278 278 276 275 275 275 273 273 273 275 273 274 274 275 272 271 272 274 275 278 280
258 257 255 255 255 257 259 262 265 268 270 272 271 270 268 265 267 267 270 273 275 277 277 276 276 273 273 274 273 273 273 273 276 276 276 276 275 273 271 273 275 274 276 279
258 258 259 257 258 259 260 261 262 265 269 270 269 270 270 268 267 267 270 273 275 276 277 276 275 275 276 272 271 271 271 271 273 275 275 275 274 274 274 274 275 276 278 280
258 259 261 262 263 263 262 261 261 264 268 269 270 270 268 266 266 267 271 274 276 276 276 275 274 275 272 273 273 273 273 271 271 272 272 272 272 272 274 275 274 276 278 280
259 261 263 265 263 263 265 262 262 264 267 269 271 271 271 271 269 269 271 272 273 273 273 272 270 270 272 273 271 271 271 271 270 270 271 271 271 272 273 275 276 278 279 279
259 262 264 263 261 262 263 264 262 264 266 270 271 271 270 270 268 267 267 271 272 271 270 269 269 269 270 270 269 269 269 270 270 270 270 270 270 273 274 275 277 279 278 280
256 260 262 262 262 262 262 265 264 266 269 270 271 273 271 269 268 267 267 268 271 270 269 268 268 267 268 268 267 267 268 269 270 270 270 270 270 273 275 275 276 277 279 280
254 258 260 261 261 262 265 266 266 267 268 270 271 273 272 268 266 264 265 266 269 271 270 267 268 269 267 266 266 267 268 270 270 269 268 269 270 273 275 275 276 277 279 279
256 260 262 264 264 264 266 267 269 267 268 272 271 269 268 266 264 260 262 265 266 267 269 266 265 266 265 265 265 266 268 269 270 268 269 270 273 275 275 276 276 278 279 279
258 259 260 262 262 265 267 270 270 268 268 271 268 266 264 263 261 260 262 266 267 266 267 267 266 263 264 266 265 265 265 268 270 269 274 277 276 278 278 279 279 279 280 280
260 263 265 263 263 266 268 272 272 271 269 268 264 260 260 261 261 263 264 266 267 267 267 265 266 266 266 267 268 268 269 269 270 270 275 280 284 283 281 281 282 281 281 282
262 265 267 267 265 267 269 269 271 274 271 266 263 260 259 259 260 264 266 267 268 270 269 268 267 267 266 266 268 268 269 270 272 274 276 278 281 283 283 282 281 282 282 283
267 269 267 267 268 270 270 269 272 272 269 267 267 266 267 263 263 264 265 267 268 269 268 267 267 267 269 269 268 267 269 271 273 276 278 281 281 282 281 281 282 282 282 283
266 267 267 268 270 272 272 271 271 268 268 266 267 267 268 266 267 266 267 267 265 265 264 265 266 268 271 272 271 270 271 273 275 279 282 282 283 282 281 281 283 284 283 284
269 269 269 270 273 273 269 270 271 268 265 266 268 269 269 269 269 266 266 261 261 262 264 267 269 268 269 270 272 273 274 276 278 282 282 281 282 283 283 285 286 286 285 286
270 271 273 275 275 275 271 268 267 266 266 270 273 273 272 271 270 268 265 260 260 261 264 268 270 270 268 268 269 271 274 277 280 282 282 280 282 285 286 286 286 287 286 287
269 271 275 276 276 275 273 269 264 264 265 267 270 272 273 272 272 269 264 262 263 265 265 268 270 270 270 269 268 270 273 276 280 282 283 284 285 286 286 286 288 289 287 287
271 272 274 278 280 278 277 273 269 266 266 267 268 270 273 272 268 266 263 263 265 268 269 268 269 271 273 274 273 273 274 276 280 283 285 285 286 287 286 287 287 287 287 287
277 276 276 278 278 277 279 275 270 265 264 266 269 269 271 270 266 265 264 263 264 267 270 271 271 273 273 274 275 275 277 278 279 282 285 286 286 288 288 288 287 287 286 286
277 275 274 273 272 275 277 275 270 268 268 268 269 269 269 268 266 266 267 266 266 267 270 271 272 273 274 275 276 276 277 279 281 283 285 286 286 288 289 289 288 287 286 285
275 274 271 271 272 274 272 271 272 272 271 271 270 271 271 269 268 269 271 270 269 268 268 270 272 272 272 274 277 277 278 279 281 282 284 286 286 287 288 287 287 286 285 285
273 268 269 274 275 272 269 272 274 272 274 275 273 273 274 272 270 271 272 273 272 271 271 274 274 273 274 275 278 280 280 281 282 283 285 285 285 286 287 287 286 286 285 285
276 274 273 274 273 271 271 271 271 272 273 273 274 275 275 273 273 273 273 274 275 275 274 275 275 276 278 278 280 282 282 282 283 284 285 286 286 285 284 285 286 286 285 285
281 279 277 274 272 273 274 274 273 271 272 273 275 276 276 274 274 275 276 276 276 277 277 278 278 279 281 281 282 284 285 284 284 284 285 285 285 284 284 285 286 286 284 283
278 277 277 276 275 277 279 277 274 275 275 275 276 278 280 278 276 278 279 278 278 278 280 281 281 281 283 285 285 285 285 286 286 286 286 286 285 285 285 285 284 284 284 285
275 277 276 272 269 272 277 279 277 277 279 281 282 281 281 280 279 280 281 281 281 283 283 282 283 284 285 287 287 286 286 287 287 287 286 286 287 288 287 286 285 283 284 285
279 277 274 269 271 275 279 281 279 278 278 279 280 280 280 281 282 283 283 282 282 285 286 285 285 286 286 287 287 287 287 287 287 286 287 287 287 288 289 288 285 284 283 283
Height
5775 5776 5776 5777 5778 5778 5778 5778 5778 5779 5779 5780 5780 5780 5781 5781 5781 5780 5780 5780 5779 5778 5777 5777 5776 5776 5775 5774 5773 5773 5772 5772 5772 5771 5770 5770 5769 5769 5768 5768 5767 5766 5766 5765
5767 5768 5768 5768 5770 5770 5771 5771 5770 5771 5771 5772 5772 5772 5772 5773 5773 5772 5772 5772 5771 5769 5769 5769 5769 5769 5769 5768 5767 5766 5766 5765 5765 5764 5764 5763 5763 5762 5761 5761 5760 5760 5759 5758
5759 5760 5759 5761 5763 5763 5763 5762 5762 5762 5764 5764 5763 5764 5764 5764 5764 5764 5764 5764 5763 5762 5762 5762 5761 5761 5761 5760 5760 5760 5759 5759 5758 5757 5757 5756 5755 5755 5754 5754 5754 5753 5752 5751
5749 5751 5751 5756 5754 5753 5753 5753 5754 5754 5754 5755 5755 5755 5756 5756 5756 5756 5756 5756 5756 5755 5755 5754 5754 5753 5752 5753 5753 5753 5752 5751 5751 5750 5750 5749 5749 5748 5747 5747 5746 5746 5745 5744
5741 5741 5743 5746 5745 5745 5745 5745 5746 5746 5747 5747 5747 5747 5748 5748 5748 5748 5748 5748 5748 5748 5747 5747 5747 5747 5746 5745 5745 5745 5745 5744 5743 5743 5743 5742 5742 5741 5740 5740 5739 5738 5737 5736
5732 5733 5734 5738 5737 5736 5737 5738 5739 5738 5738 5739 5739 5739 5740 5739 5739 5739 5739 5740 5739 5739 5739 5739 5739 5739 5739 5738 5738 5738 5738 5737 5736 5736 5735 5735 5734 5734 5733 5732 5731 5730 5730 5729
5724 5724 5726 5728 5728 5729 5730 5731 5730 5730 5730 5730 5730 5731 5731 5730 5730 5730 5731 5732 5731 5731 5731 5731 5731 5732 5731 5731 5730 5730 5730 5729 5729 5728 5728 5727 5727 5726 5725 5725 5724 5723 5722 5721
5716 5717 5720 5719 5720 5721 5722 5721 5721 5722 5722 5722 5722 5721 5722 5722 5722 5722 5723 5723 5723 5723 5723 5724 5724 5724 5723 5723 5723 5723 5722 5721 5721 5721 5720 5720 5719 5719 5717 5717 5716 5714 5713 5712
5709 5711 5711 5711 5711 5712 5712 5712 5713 5713 5713 5713 5713 5714 5714 5714 5714 5714 5715 5715 5715 5716 5716 5716 5715 5715 5715 5715 5715 5715 5715 5714 5713 5713 5713 5712 5712 5711 5710 5709 5708 5706 5705 5704
5700 5701 5702 5702 5702 5703 5704 5704 5704 5704 5704 5704 5704 5705 5706 5706 5705 5706 5707 5707 5707 5708 5708 5707 5706 5707 5707 5707 5707 5707 5707 5707 5707 5706 5706 5704 5703 5703 5702 5701 5700 5698 5697 5695
5693 5693 5693 5694 5695 5696 5696 5696 5695 5695 5695 5695 5695 5696 5697 5698 5698 5698 5699 5700 5700 5700 5700 5700 5700 5700 5700 5699 5700 5700 5700 5700 5699 5699 5699 5697 5696 5695 5694 5693 5691 5690 5688 5687
5685 5686 5686 5686 5687 5688 5688 5687 5687 5687 5686 5686 5687 5687 5688 5689 5690 5691 5692 5692 5691 5692 5692 5692 5692 5692 5692 5692 5692 5693 5693 5693 5692 5692 5691 5690 5689 5688 5686 5684 5683 5682 5680 5678
5679 5679 5679 5679 5680 5680 5680 5680 5680 5679 5679 5680 5680 5681 5681 5682 5682 5683 5684 5683 5684 5685 5685 5685 5685 5685 5685 5685 5685 5685 5685 5685 5685 5684 5683 5682 5681 5680 5678 5677 5675 5673 5671 5670
5672 5673 5673 5673 5673 5673 5673 5673 5674 5674 5673 5673 5674 5675 5675 5675 5675 5676 5676 5677 5677 5678 5678 5678 5678 5678 5678 5678 5678 5678 5678 5677 5677 5676 5675 5674 5673 5671 5670 5668 5667 5665 5663 5661
5666 5666 5667 5667 5666 5666 5667 5667 5668 5668 5668 5668 5668 5668 5669 5669 5669 5669 5669 5669 5670 5670 5671 5671 5671 5672 5672 5672 5671 5671 5671 5670 5669 5669 5668 5667 5665 5664 5662 5660 5659 5657 5656 5654
5660 5660 5660 5661 5660 5660 5660 5661 5661 5661 5662 5662 5662 5662 5662 5662 5661 5661 5661 5663 5663 5664 5665 5665 5665 5665 5665 5665 5665 5665 5664 5663 5662 5661 5660 5659 5658 5656 5655 5653 5651 5650 5648 5646
5654 5654 5655 5655 5655 5654 5654 5654 5655 5655 5656 5656 5656 5656 5655 5655 5655 5655 5655 5656 5657 5658 5658 5659 5659 5658 5658 5658 5658 5658 5657 5656 5655 5654 5653 5652 5650 5649 5647 5645 5644 5642 5640 5638
5649 5649 5649 5649 5649 5648 5648 5648 5648 5649 5650 5650 5650 5650 5650 5649 5649 5649 5650 5650 5651 5651 5652 5652 5652 5652 5652 5652 5651 5651 5650 5649 5648 5647 5646 5644 5642 5641 5639 5637 5635 5634 5632 5630
5643 5643 5643 5643 5643 5643 5643 5643 5643 5643 5643 5644 5644 5644 5644 5643 5643 5644 5644 5645 5645 5645 5646 5646 5646 5645 5645 5645 5644 5644 5643 5642 5641 5640 5638 5637 5635 5633 5631 5629 5627 5625 5624 5622
5638 5638 5638 5638 5638 5638 5638 5637 5637 5637 5638 5638 5638 5638 5638 5637 5637 5638 5638 5639 5639 5639 5640 5639 5639 5639 5638 5638 5637 5636 5635 5634 5633 5632 5631 5629 5627 5625 5623 5621 5619 5617 5616 5614
5633 5633 5633 5633 5633 5633 5633 5633 5633 5633 5633 5633 5633 5632 5632 5632 5632 5632 5632 5632 5633 5632 5633 5633 5632 5632 5631 5631 5630 5629 5628 5627 5626 5625 5623 5622 5620 5618 5616 5614 5612 5610 5608 5607
5628 5627 5628 5628 5628 5628 5628 5628 5628 5628 5628 5628 5628 5628 5627 5627 5627 5627 5626 5626 5626 5626 5626 5626 5625 5624 5624 5624 5623 5622 5620 5619 5618 5617 5615 5613 5612 5610 5608 5606 5604 5602 5601 5599
5624 5623 5623 5623 5623 5624 5624 5624 5623 5624 5624 5624 5623 5623 5622 5622 5621 5621 5621 5621 5620 5620 5619 5619 5618 5617 5617 5616 5615 5614 5613 5611 5610 5609 5607 5605 5604 5602 5600 5598 5596 5594 5592 5591
5620 5620 5620 5620 5620 5620 5620 5619 5619 5619 5619 5619 5619 5618 5617 5617 5616 5616 5615 5615 5614 5613 5613 5612 5611 5611 5610 5609 5608 5606 5605 5604 5602 5601 5599 5597 5596 5594 5592 5590 5589 5586 5584 5583
5616 5616 5616 5616 5616 5616 5616 5615 5615 5615 5614 5614 5614 5613 5612 5611 5611 5611 5610 5609 5608 5607 5606 5605 5604 5604 5602 5601 5600 5599 5597 5596 5594 5592 5591 5589 5587 5586 5584 5582 5580 5578 5576 5575
5613 5612 5612 5612 5612 5612 5611 5611 5611 5610 5610 5609 5609 5608 5607 5606 5606 5605 5604 5603 5602 5601 5600 5599 5598 5597 5595 5593 5592 5591 5589 5588 5586 5584 5583 5581 5579 5577 5576 5574 5572 5570 5568 5567
5609 5608 5608 5608 5608 5607 5607 5606 5606 5605 5604 5604 5603 5603 5602 5601 5600 5599 5598 5597 5596 5594 5593 5592 5591 5589 5587 5586 5584 5583 5581 5579 5578 5576 5575 5573 5571 5569 5568 5566 5564 5562 5560 5559